[[{"header":{"parameterUnit":"m.s-1","parameterCategory":1,"la1":30.2991,"la2":30.254,"lo1":-89.0895,"lo2":-89.0444,"dy":0.0017,"dx":0.0017,"nx":28,"ny":28,"refTime":"2025-05-25T21:00:00:Z","depth":0,"parameterNumber":2,"parameterNumberName":"U-component_of_WINDS"},"data":[0,0,0,0,0,0,0,0,0,0,0,0,0,0,0,0,0,0,0,0,0,0,0,0,0,0,0,0,0,0,0,0,0,0,0,0,0,0,0,0,0,0,0,0,0,0,0,0,0,0,0,0,0,0,0,0,0,0,2.0345,2.0346,0,2.0433,2.0434,2.0435,2.0445,2.0444,2.0444,2.0443,2.053,2.0533,2.0537,0,0,0,0,0,0,0,0,0,0,0,0,0,2.018,2.0183,2.0344,2.0346,2.0347,2.0433,2.0434,2.0435,2.0445,2.0444,2.0443,2.0442,2.0529,2.0533,2.0537,0,0,0,0,0,0,0,0,0,0,0,0,0,2.0258,2.0184,2.0344,2.0362,2.0365,2.0432,2.0434,2.0435,2.0446,2.0444,2.0443,2.0442,2.0528,2.0533,2.0537,2.0592,0,0,2.0552,2.0554,0,0,0,0,0,0,0,0,2.0254,2.0264,2.0359,2.0361,2.0364,2.0427,2.0408,2.0488,2.0446,2.0415,2.0443,2.0441,2.0497,2.0504,2.0523,2.0596,2.06,2.0552,2.0555,2.0557,2.0558,0,0,0,0,0,0,0,2.0249,2.0261,2.0379,2.036,2.0363,2.0364,2.0374,2.0423,2.0462,2.0417,2.0418,2.0429,2.0498,2.0519,2.0525,2.0601,2.0552,2.0556,2.0559,2.0561,2.072,2.0721,0,0,0,0,0,0,2.024,2.0256,2.0377,2.0382,2.0305,2.0368,2.0379,2.0408,2.0461,2.0468,2.043,2.0429,2.0511,2.052,2.0529,2.0594,2.0557,2.0561,2.0564,2.0719,2.072,2.0722,0,0,0,0,0,0,2.0237,2.0251,2.0373,2.0319,2.0335,2.0373,2.0405,2.041,2.0431,2.0471,2.0477,2.0444,2.0511,2.0522,2.0576,2.0597,2.0564,2.0568,2.0717,2.0719,2.0721,2.0726,0,0,0,0,0,0,2.0232,2.025,2.0272,2.032,2.0338,2.042,2.0406,2.0413,2.0439,2.0439,2.0486,2.0493,2.051,2.0569,2.058,2.0603,2.0571,2.0715,2.0718,2.072,2.0724,2.0728,2.0732,0,0,0,0,0,2.0226,2.027,2.0273,2.0288,2.0367,2.0421,2.0432,2.0452,2.0441,2.0463,2.0488,2.0491,2.0593,2.0574,2.0587,2.0612,2.0714,2.0717,2.072,2.0723,2.0728,2.0732,0,0,0,0,0,0,2.0224,2.0277,2.0281,2.0342,2.0377,2.0423,2.0452,2.0457,2.0495,2.0493,2.0516,2.0527,2.0579,2.0601,2.0579,2.0666,2.0652,2.0658,2.065,2.0655,2.0658,2.0651,2.0575,0,0,0,0,0,2.0231,2.0272,2.0316,2.0365,2.0383,2.0414,2.0438,2.0451,2.0488,2.0503,2.0532,2.0566,2.0606,2.0632,2.0671,2.0728,2.0737,2.0751,2.0755,2.0757,2.0762,2.0791,2.0797,2.0732,2.0732,2.0732,0,0,2.0245,2.0279,2.0304,2.0365,2.0394,2.0434,2.0426,2.047,2.0499,2.0509,2.0561,2.0583,2.0623,2.0678,2.0704,2.0698,2.0781,2.0761,2.0763,2.0766,2.0794,2.08,2.0806,2.0734,2.0734,2.0734,0,0,2.0291,2.0322,2.0365,2.0394,2.0437,2.0457,2.0468,2.0512,2.0528,2.058,2.0588,2.0622,2.0691,2.0718,2.0741,2.0794,2.0797,2.0806,2.0825,2.0853,2.0858,2.0862,2.0879,2.0885,2.0811,2.0811,2.0811,0,2.0303,2.0365,2.0387,2.043,2.0455,2.0466,2.0509,2.0535,2.0588,2.0605,2.0598,2.0682,2.071,2.077,2.0783,2.0802,2.0812,2.0801,2.0856,2.086,2.0865,2.0881,2.0887,2.0811,2.0811,2.0811,2.0811,0,2.0376,2.0419,2.0448,2.0499,2.0529,2.0571,2.0597,2.0624,2.0633,2.0653,2.0705,2.0739,2.0783,2.0799,2.0809,2.0859,2.0854,2.0851,2.0838,2.0871,2.0886,2.0893,2.0812,2.0812,2.0812,2.0812,0,0,2.0424,2.0485,2.0496,2.0518,2.0565,2.0598,2.0639,2.0683,2.0704,2.074,2.0774,2.083,2.0827,2.0853,2.0866,2.089,2.0927,2.0884,2.0885,2.0889,2.0981,2.0982,2.0989,2.093,2.0931,2.0932,2.0977,0,2.0474,2.055,2.0569,2.0633,2.067,2.068,2.0716,2.0747,2.0767,2.0801,2.0822,2.086,2.0854,2.087,2.0894,2.0917,2.0945,2.0914,2.0959,2.096,2.0947,2.0998,2.0999,2.1041,2.0984,2.0985,2.0986,0,2.0543,2.0579,2.0647,2.0687,2.0703,2.0735,2.0775,2.0808,2.0843,2.0855,2.0883,2.0893,2.0934,2.0919,2.0975,2.0953,2.0972,2.0986,2.0988,2.0992,2.0974,2.1001,2.1055,2.106,2.0996,2.0995,2.0994,0,2.0568,2.0634,2.0682,2.0701,2.075,2.0772,2.0792,2.0827,2.0851,2.0885,2.09,2.0939,2.096,2.0989,2.1008,2.0996,2.1061,2.1049,2.1071,2.107,2.1083,2.1082,2.1139,2.1098,2.1098,2.1098,2.1098,0,2.0621,2.0661,2.0694,2.0724,2.0768,2.0789,2.0832,2.0853,2.0882,2.0914,2.0925,2.0954,2.0979,2.1011,2.1026,2.1068,2.1078,2.1087,2.1091,2.1086,2.1084,2.1098,2.1095,2.11,2.11,2.1099,2.1099,0,2.0656,2.0681,2.0733,2.0774,2.0785,2.0816,2.085,2.0878,2.0897,2.0937,2.0947,2.0977,2.1015,2.1037,2.1086,2.1095,2.1142,2.1144,2.113,2.1131,2.1151,2.1148,2.1218,2.1227,2.1181,2.1182,2.1182,0,2.0687,2.0718,2.0762,2.0785,2.0806,2.0842,2.0867,2.0888,2.0912,2.0953,2.0975,2.1014,2.1046,2.1106,2.1131,2.1167,2.117,2.1191,2.1175,2.1168,2.1167,2.1165,2.1167,2.1194,2.1194,2.1195,2.1195,0,2.074,2.0749,2.0785,2.0823,2.0852,2.0884,2.0915,2.0932,2.0958,2.0984,2.1024,2.1048,2.1097,2.1134,2.1172,2.1192,2.1197,2.12,2.1206,2.1201,2.119,2.1194,2.1135,2.1198,2.1198,2.1197,2.1197,2.1197,2.0773,2.08,2.0834,2.0872,2.0897,2.0926,2.0953,2.0975,2.1008,2.105,2.106,2.11,2.1132,2.1183,2.1203,2.1234,2.123,2.124,2.1243,2.1244,2.1244,2.1186,2.1241,2.1241,2.1241,2.1241,2.1241,0,2.0823,2.0846,2.088,2.0923,2.0952,2.0955,2.0989,2.1013,2.1048,2.1078,2.1109,2.1152,2.1188,2.1215,2.1251,2.127,2.1273,2.1279,2.1277,2.1281,2.1246,2.1236,2.1276,2.1275,2.1275,2.1275,2.1275,2.1275,2.0853,2.0898,2.0912,2.0968,2.099,2.103,2.1048,2.1073,2.1097,2.1145,2.1175,2.1192,2.122,2.1258,2.129,2.1296,2.1308,2.1313,2.132,2.1287,2.1283,2.128,2.127,2.1316,2.1316,2.1352,2.1352,2.1352]},{"header":{"parameterUnit":"m.s-1","parameterCategory":1,"la1":30.2991,"la2":30.254,"lo1":-89.0895,"lo2":-89.0444,"dy":0.0017,"dx":0.0017,"nx":28,"ny":28,"refTime":"2025-05-25T21:00:00:Z","depth":0,"parameterNumber":3,"parameterNumberName":"V-component_of_WINDS"},"data":[0,0,0,0,0,0,0,0,0,0,0,0,0,0,0,0,0,0,0,0,0,0,0,0,0,0,0,0,0,0,0,0,0,0,0,0,0,0,0,0,0,0,0,0,0,0,0,0,0,0,0,0,0,0,0,0,0,0,2.6156,2.6157,0,2.6268,2.6269,2.627,2.6252,2.625,2.6248,2.6247,2.6359,2.6363,2.6368,0,0,0,0,0,0,0,0,0,0,0,0,0,2.5921,2.5925,2.6156,2.6157,2.6158,2.6268,2.6269,2.6271,2.6253,2.625,2.6248,2.6246,2.6357,2.6363,2.6368,0,0,0,0,0,0,0,0,0,0,0,0,0,2.6027,2.5927,2.6155,2.6163,2.6164,2.6267,2.6269,2.6271,2.6253,2.625,2.6247,2.6245,2.6355,2.6362,2.6369,2.6471,0,0,2.6391,2.6394,0,0,0,0,0,0,0,0,2.6021,2.6036,2.616,2.6162,2.6164,2.6243,2.6228,2.6338,2.6254,2.6219,2.6247,2.6243,2.6322,2.6332,2.6359,2.6476,2.6481,2.6392,2.6396,2.6399,2.6401,0,0,0,0,0,0,0,2.6014,2.6031,2.62,2.6162,2.6165,2.6159,2.6171,2.6248,2.6286,2.6222,2.6221,2.6235,2.6323,2.6352,2.6362,2.6483,2.6391,2.6398,2.6402,2.6405,2.6686,2.6689,0,0,0,0,0,0,2.6005,2.6025,2.6196,2.6203,2.6084,2.6165,2.6179,2.6221,2.6285,2.6292,2.6237,2.6233,2.6342,2.6353,2.6366,2.6488,2.6399,2.6406,2.641,2.6683,2.6687,2.6691,0,0,0,0,0,0,2.6,2.602,2.6192,2.6114,2.6135,2.6172,2.622,2.6225,2.6254,2.6296,2.6302,2.6261,2.634,2.6356,2.6445,2.6492,2.6409,2.6415,2.668,2.6684,2.6689,2.6734,0,0,0,0,0,0,2.5993,2.6019,2.6059,2.6115,2.6139,2.6271,2.6223,2.6229,2.6267,2.6263,2.632,2.6326,2.6339,2.6434,2.6452,2.65,2.6421,2.6676,2.6682,2.6687,2.6729,2.674,2.675,0,0,0,0,0,2.5985,2.6067,2.6061,2.6082,2.6191,2.6274,2.6287,2.6301,2.6271,2.6311,2.6337,2.6325,2.6483,2.6443,2.6463,2.6514,2.6673,2.668,2.6687,2.6724,2.6738,2.6749,0,0,0,0,0,0,2.6016,2.6075,2.6069,2.6172,2.6218,2.627,2.6322,2.6315,2.637,2.6364,2.6377,2.639,2.648,2.6506,2.646,2.6615,2.6574,2.6585,2.6595,2.6609,2.6619,2.6611,2.6427,0,0,0,0,0,2.6035,2.6098,2.6146,2.6232,2.6255,2.6284,2.6321,2.6327,2.6375,2.6394,2.6427,2.6473,2.6532,2.6572,2.6629,2.6732,2.6743,2.6777,2.6787,2.6795,2.6805,2.6859,2.6874,2.6714,2.6714,2.6714,0,0,2.6074,2.6114,2.6153,2.6239,2.6275,2.6339,2.6301,2.637,2.6417,2.6404,2.649,2.6516,2.6567,2.6663,2.6707,2.6688,2.6852,2.6804,2.6811,2.6816,2.6868,2.6883,2.6897,2.6719,2.6718,2.6717,0,0,2.6179,2.6216,2.6292,2.6328,2.6384,2.6402,2.642,2.6473,2.649,2.6577,2.6567,2.6622,2.6726,2.6762,2.6795,2.691,2.69,2.6928,2.6983,2.7036,2.7048,2.706,2.71,2.7114,2.6938,2.6938,2.6938,0,2.6221,2.6318,2.6331,2.6401,2.6438,2.6429,2.6504,2.6539,2.661,2.6635,2.6612,2.674,2.6774,2.6878,2.6906,2.6933,2.6952,2.6923,2.7046,2.7057,2.7068,2.7106,2.7122,2.6941,2.6941,2.6941,2.694,0,2.6366,2.6433,2.6487,2.6556,2.6599,2.6672,2.6694,2.6735,2.6737,2.6757,2.6844,2.6884,2.6949,2.6974,2.6976,2.7077,2.7063,2.7043,2.7002,2.7086,2.7122,2.7137,2.6946,2.6944,2.6944,2.6943,0,0,2.6496,2.6569,2.6589,2.6619,2.6678,2.673,2.68,2.6864,2.6899,2.6947,2.7006,2.7093,2.7074,2.711,2.7116,2.7162,2.725,2.7136,2.7138,2.7155,2.7361,2.7376,2.7393,2.7243,2.7246,2.7248,2.7357,0,2.6605,2.6732,2.6744,2.6856,2.6917,2.6908,2.6969,2.7011,2.7031,2.7085,2.7106,2.7167,2.7138,2.716,2.7205,2.7229,2.7291,2.7222,2.7296,2.7299,2.7284,2.7412,2.7429,2.753,2.7371,2.7374,2.7375,0,2.6751,2.6804,2.6923,2.6972,2.6998,2.7053,2.7111,2.7163,2.7209,2.722,2.726,2.7259,2.7329,2.7285,2.7381,2.7334,2.7364,2.738,2.7385,2.7392,2.7342,2.7423,2.7562,2.7577,2.7398,2.7396,2.7394,0,2.6832,2.6933,2.7017,2.7043,2.7102,2.7141,2.7167,2.7211,2.7247,2.7298,2.7321,2.7379,2.7411,2.7454,2.7468,2.7435,2.7563,2.752,2.7573,2.7573,2.7602,2.76,2.7748,2.7621,2.7621,2.7621,2.7621,0,2.6954,2.7027,2.7054,2.7105,2.7186,2.7198,2.7276,2.73,2.7339,2.7393,2.7388,2.7439,2.7454,2.7507,2.7518,2.7595,2.761,2.7619,2.7621,2.762,2.7619,2.7641,2.7634,2.7625,2.7624,2.7623,2.7623,0,2.7059,2.708,2.7171,2.7219,2.7232,2.7289,2.733,2.7378,2.7396,2.7465,2.7482,2.7511,2.7572,2.759,2.7665,2.7672,2.7762,2.7758,2.7747,2.7747,2.7799,2.7794,2.7966,2.7989,2.7848,2.7849,2.785,0,2.7135,2.7191,2.7245,2.7281,2.7309,2.7368,2.7406,2.7418,2.7457,2.7513,2.7554,2.7615,2.7665,2.7764,2.779,2.7847,2.7843,2.79,2.7852,2.7848,2.7843,2.784,2.7845,2.7909,2.791,2.7912,2.7913,0,2.7268,2.7275,2.733,2.7388,2.7433,2.7479,2.7523,2.7553,2.7572,2.7615,2.7679,2.7717,2.7793,2.7853,2.7909,2.7934,2.7927,2.7927,2.7942,2.7942,2.7933,2.7938,2.7772,2.7924,2.7922,2.7922,2.7921,2.7921,2.7361,2.7409,2.7454,2.7515,2.7549,2.759,2.7638,2.7661,2.7715,2.7778,2.7782,2.785,2.7892,2.7967,2.7995,2.8048,2.8031,2.8053,2.8059,2.8064,2.8068,2.7924,2.8058,2.8058,2.8057,2.8057,2.8057,0,2.7493,2.7521,2.7576,2.7638,2.7685,2.7674,2.7721,2.7761,2.7822,2.7862,2.7911,2.7983,2.804,2.807,2.8127,2.8163,2.8161,2.8178,2.8175,2.8181,2.808,2.8061,2.8179,2.8179,2.8179,2.8179,2.8179,2.8179,2.7567,2.7648,2.766,2.7757,2.7784,2.7852,2.788,2.7917,2.7949,2.803,2.8078,2.8097,2.8133,2.8192,2.8244,2.8251,2.8272,2.8291,2.8296,2.8201,2.8188,2.8176,2.8159,2.8295,2.8295,2.8392,2.8393,2.8394]}]]